Lid_Strength_Index
11 10 10 11 11 11 12 11 16 14 12 9 8 8 7 6 5 5 5 4 5 5 4 4 4 3 4 6 7 7 8 9 10 10 10 10 10 10 10 11 12 13 13 12
13 10 10 12 11 11 11 11 11 11 12 8 7 6 6 6 5 6 6 5 5 4 4 4 3 3 3 5 6 7 8 9 10 9 9 10 9 9 11 11 12 12 12 11
16 11 12 15 12 10 10 9 10 12 9 7 7 6 6 5 5 5 5 4 4 4 4 4 4 3 4 5 5 6 8 9 10 8 9 9 9 9 10 11 11 11 10 10
16 13 20 11 7 8 9 8 8 8 7 7 6 5 5 4 5 5 4 4 3 3 3 3 3 3 4 5 6 7 8 9 8 9 9 9 10 10 10 10 11 11 10 10
16 16 13 10 9 9 10 10 7 8 7 6 5 6 6 5 5 5 4 4 4 3 3 3 4 3 4 5 6 7 7 8 8 8 10 10 10 11 10 10 11 10 10 11
14 17 18 10 8 6 7 13 7 6 7 8 7 11 9 5 5 5 3 3 3 3 2 3 3 4 5 7 7 8 8 8 9 9 10 10 10 10 10 10 11 10 11 11
15 16 13 8 7 6 14 11 6 6 6 6 9 8 6 5 5 4 3 3 3 3 3 3 3 4 6 7 8 8 8 8 8 8 10 10 10 9 10 11 11 11 12 13
14 15 17 8 7 12 8 5 6 6 6 6 5 5 5 5 5 4 4 4 3 4 4 4 4 6 7 8 8 8 8 8 9 9 10 9 9 10 10 11 12 13 13 14
12 12 8 7 6 5 4 5 5 5 4 4 5 5 5 5 5 4 3 4 3 4 5 5 5 5 8 8 8 8 8 8 8 8 9 9 9 10 10 11 12 13 13 13
9 7 7 5 5 4 4 4 4 4 4 4 5 6 5 5 5 4 3 4 5 5 6 7 6 6 7 7 8 8 8 8 8 9 9 9 9 10 10 11 12 12 13 12
9 7 6 5 5 4 4 4 4 4 4 5 5 5 5 5 5 4 4 5 5 6 6 7 7 7 7 8 8 8 8 9 8 9 9 9 9 9 10 10 10 11 11 12
11 6 6 6 4 4 4 4 4 4 4 4 4 5 4 5 4 4 4 4 5 6 6 6 6 7 8 8 7 8 9 9 9 9 9 9 10 11 10 10 10 9 9 10
6 4 4 4 4 3 4 4 4 4 4 5 5 4 5 5 4 5 4 5 6 6 6 6 6 7 7 7 7 8 9 9 9 9 9 9 10 10 13 12 10 10 9 10
4 4 5 5 5 3 3 3 3 4 4 4 4 4 4 5 4 4 5 5 5 5 6 6 6 7 7 7 7 8 9 9 9 9 9 9 9 9 10 12 13 13 12 11
4 4 4 4 4 4 3 3 4 4 4 3 3 4 4 5 5 5 4 5 5 6 6 7 8 9 8 8 9 9 9 9 8 8 8 9 9 9 9 11 12 12 13 14
4 4 4 4 4 4 4 4 4 4 4 4 4 4 4 4 4 5 5 5 7 8 7 9 9 9 8 8 8 9 9 9 8 8 9 9 9 10 10 10 11 12 13 14
6 6 5 5 5 4 4 4 4 4 3 4 4 3 4 3 5 6 6 7 8 9 8 9 9 9 9 9 9 9 9 9 9 8 9 9 10 10 10 11 11 11 11 11
4 4 4 4 4 5 4 4 4 4 4 4 4 6 8 7 7 8 8 9 9 9 9 9 9 10 10 9 9 9 9 10 9 9 9 9 9 9 10 11 11 10 10 10
4 4 4 4 4 4 4 4 4 5 7 8 9 9 9 9 9 10 9 10 10 10 10 10 10 10 10 10 9 9 10 9 9 8 8 9 9 10 10 10 10 10 10 10
5 5 5 4 5 4 4 4 6 8 8 9 9 9 10 10 10 10 10 10 10 9 10 10 10 10 10 10 9 8 8 9 8 8 9 9 9 9 9 9 10 9 9 10
6 7 9 9 9 9 9 8 9 9 9 9 9 10 10 10 10 10 10 11 11 10 10 10 9 9 9 9 9 8 7 8 9 9 9 9 9 9 9 9 10 9 10 9
6 8 10 9 9 9 9 9 9 9 9 9 9 9 10 10 10 10 10 10 10 10 10 9 9 9 9 9 8 7 8 8 9 9 9 9 9 9 10 10 10 10 10 10
6 7 8 9 9 9 10 10 9 10 10 10 10 10 9 9 9 10 11 10 10 9 8 9 9 9 9 8 8 8 8 9 9 9 9 9 9 9 9 10 10 10 11 12
6 7 8 8 9 8 9 9 9 10 10 10 10 10 8 9 9 9 9 9 9 9 9 9 9 8 8 8 8 8 8 8 8 9 9 9 9 9 9 10 11 11 12 12
7 8 8 9 7 7 8 8 9 9 9 9 9 8 8 7 8 9 9 9 10 10 10 9 9 9 8 8 9 9 9 9 9 9 9 10 10 11 11 12 12 13 13 14
7 7 7 6 6 6 6 7 7 8 8 9 8 8 8 9 9 10 9 10 10 10 10 9 9 9 9 9 9 9 9 10 9 10 10 11 11 12 13 14 14 14 14 15
7 7 7 6 6 5 5 6 6 7 7 8 9 9 9 9 9 9 9 10 10 10 10 9 9 9 9 10 10 10 10 10 11 11 12 12 13 13 14 15 15 15 17 18